Hourly Data Report for October 27, 2013

All times are specified in Local Standard Time (LST). Add 1 hour to adjust for Daylight Saving Time where and when it is observed.

CAPE DORSET A
NUNAVUT

64°13'49.000" N
76°31'30.000" W
48.20 m
2400637
71366
YTE

Download Data

Hourly Data (October 2013)
Hourly Data Report for October 27, 2013
Temp Definition
°C
Dew Point Temp Definition
°C
Rel Hum Definition
%
Wind Dir Definition
10's deg

Wind Spd Definition
km/h
Visibility Definition
km
Stn Press Definition
kPa
Hmdx Definition


Wind Chill Definition


Weather Definition


TIME
00:00 Legend Double Dagger -5.8 -7.8 86   0 16.1 99.65     LegendNANA
01:00 Legend Double Dagger -6.7 -8.4 88 23 5 16.1 99.68   -9 LegendNANA
02:00 Legend Double Dagger -5.4 -7.9 83   0 16.1 99.68     LegendNANA
03:00 Legend Double Dagger -5.1 -7.2 86 LegendMM 4 16.1 99.67   -7 LegendNANA
04:00 Legend Double Dagger -5.1 -5.9 94 23 5 4.0 99.68   -7 LegendNANA
05:00 Legend Double Dagger -5.0 -6.0 93   0 8.1 99.69     LegendNANA
06:00 Legend Double Dagger -5.2 -6.2 93 30 4 9.7 99.70   -7 LegendNANA
07:00 Legend Double Dagger -5.1 -6.1 93 18 4 3.6 99.72   -7 LegendNANA
08:00 Legend Double Dagger -5.5 -6.2 95   0 1.2 99.74     LegendNANA
09:00 Legend Double Dagger -5.7 -6.2 96   0 2.4 99.75     LegendNANA
10:00 Legend Double Dagger -6.6 -7.1 96 26 5 6.4 99.75   -9 LegendNANA
11:00 Legend Double Dagger -6.4 -7.4 93   0 8.1 99.73     LegendNANA
12:00 Legend Double Dagger -6.6 -7.6 93 LegendMM 4 16.1 99.71   -9 LegendNANA
13:00 Legend Double Dagger -6.0 -7.2 91   0 16.1 99.72     LegendNANA
14:00 Legend Double Dagger -5.6 -6.4 94 28 5 4.8 99.71   -8 LegendNANA
15:00 Legend Double Dagger -7.6 -8.3 95 26 5 16.1 99.69   -10 LegendNANA
16:00 Legend Double Dagger -6.7 -7.5 94 24 4 16.1 99.69   -9 LegendNANA
17:00 Legend Double Dagger -7.0 -8.1 92 24 5 16.1 99.68   -10 LegendNANA
18:00 Legend Double Dagger -7.7 -9.1 90 26 5 16.1 99.68   -10 LegendNANA
19:00 Legend Double Dagger -7.4 -8.3 93 27 11 14.5 99.68   -12 LegendNANA
20:00 Legend Double Dagger -7.4 -8.9 89 LegendMM 4 6.4 99.68   -9 LegendNANA
21:00 Legend Double Dagger -7.9 -9.6 88 31 11 9.7 99.68   -13 LegendNANA
22:00 Legend Double Dagger -8.5 -11.1 82 31 8 16.1 99.66   -13 LegendNANA
23:00 Legend Double Dagger -8.2 -11.4 78 32 9 16.1 99.64   -13 LegendNANA

Notes on Data Quality.

Legend

  • E = Estimated
  • M = Missing
  • NA = Not Available
  • ‡ = Partner data that is not subject to review by the National Climate Archives
Date modified: